CAPE
22 13 15 22 11 10 12 13 12 0 0 1 1 0 0 0 0 0 0 0 0 0 0 0 0 0 0 0 0 0 0 0 0 0 0 0 0 0 0 0 0 0 0 0 44
13 9 19 17 15 5 10 4 4 16 4 0 2 21 1 0 0 0 0 0 0 0 0 0 0 0 0 0 0 0 0 0 0 0 0 0 0 0 0 0 0 0 0 0 31
5 5 19 10 12 8 11 0 1 0 6 0 0 4 2 0 0 0 0 0 0 0 0 0 0 0 0 0 0 0 0 0 0 0 0 0 0 0 0 0 0 0 0 0 31
0 6 12 12 13 10 17 3 0 2 0 15 9 0 0 0 0 0 0 0 0 0 0 0 0 0 0 0 0 0 0 0 0 0 0 0 0 0 0 0 0 0 0 0 0
0 4 10 8 13 12 17 4 0 0 0 19 13 0 0 0 0 0 0 0 0 0 0 0 0 0 0 0 0 0 0 0 0 0 0 0 0 0 0 0 0 0 0 0 0
5 7 1 6 10 11 14 4 0 0 0 5 0 0 0 0 0 0 0 0 0 0 0 0 0 0 0 0 0 0 0 0 0 0 0 0 0 0 0 0 0 0 0 0 0
8 2 0 16 10 11 9 0 0 0 0 0 0 0 0 0 0 0 0 0 0 0 0 0 0 0 0 0 0 0 0 0 0 0 0 0 0 0 0 0 0 0 0 0 0
18 0 0 12 7 8 6 0 0 0 0 0 0 0 0 0 0 0 0 0 0 0 0 0 0 0 0 0 0 0 0 0 0 0 0 0 0 0 0 0 0 0 0 0 0
12 0 8 11 7 6 2 0 0 0 0 0 0 0 0 0 0 0 0 0 0 0 0 0 0 0 0 0 0 0 0 0 0 0 0 0 0 0 0 0 0 0 0 0 0
8 2 9 7 4 3 0 0 0 0 0 0 0 0 0 0 0 0 0 0 0 0 0 0 0 0 0 0 0 0 0 0 0 0 0 0 0 0 0 0 0 0 0 0 0
5 1 5 7 2 0 0 0 0 0 0 0 0 0 0 0 0 0 0 0 0 0 0 0 0 0 0 0 0 0 0 0 0 0 0 0 0 0 0 0 0 0 0 0 0
9 6 10 3 0 2 3 0 0 0 0 0 0 0 0 0 0 0 0 0 0 0 0 0 0 0 0 0 0 0 0 0 0 0 0 0 0 0 0 0 0 0 0 0 0
21 13 7 3 1 14 0 0 0 0 0 0 0 0 0 0 0 0 0 0 0 0 0 0 0 0 0 0 0 0 0 0 0 0 0 0 0 0 0 0 0 0 0 0 0
18 8 4 4 14 7 0 0 0 0 0 0 0 0 0 0 0 0 0 0 0 0 0 0 0 0 0 0 0 0 0 0 0 0 0 0 0 0 0 0 0 0 0 0 0
23 14 14 7 3 4 0 0 0 0 0 0 0 0 0 0 0 0 0 0 0 0 0 0 0 0 0 0 0 0 0 0 0 0 0 0 0 0 0 0 0 0 0 0 0
5 5 37 24 11 0 0 0 0 0 0 0 0 0 0 0 0 0 0 0 0 0 0 0 0 0 0 0 0 0 0 0 0 0 0 0 0 0 0 0 0 0 0 0 0
3 1 50 9 1 0 0 0 0 0 0 0 0 0 0 0 0 0 0 0 0 0 0 0 0 0 0 0 0 0 0 0 0 0 0 0 0 0 0 0 0 0 0 0 0
2 0 1 2 0 24 0 0 0 0 0 0 0 0 0 0 0 0 0 0 0 0 0 0 0 0 0 0 0 0 0 0 0 0 0 0 0 0 0 0 0 0 0 0 0
0 0 1 1 2 32 0 0 0 0 0 0 0 0 0 0 0 0 0 0 0 0 0 0 0 0 0 0 0 0 0 0 0 0 0 0 0 0 0 0 0 0 0 0 0
0 0 2 2 1 112 6 0 0 0 0 0 0 0 0 0 0 0 0 0 0 0 0 0 0 0 0 0 0 0 0 0 0 0 0 0 0 0 0 0 0 0 0 0 0
0 1 0 0 1 127 0 0 0 0 0 0 0 0 0 0 0 0 0 0 0 0 0 0 0 0 0 0 0 0 0 0 0 0 0 0 0 0 0 0 0 0 0 0 0
0 0 1 0 0 12 10 0 0 0 0 0 0 0 0 0 0 0 0 0 0 0 0 0 0 0 0 0 0 0 0 0 0 0 0 0 0 0 0 0 0 0 0 0 0
0 0 1 2 0 0 0 4 2 0 0 0 0 0 0 0 0 0 0 0 0 0 0 0 0 0 0 0 0 0 0 0 0 0 0 0 0 0 0 0 0 0 0 0 0
0 0 1 1 0 0 0 0 3 1 0 0 0 0 0 0 0 0 0 0 0 0 0 0 0 0 0 0 0 0 0 0 0 0 0 0 0 0 0 0 0 0 0 0 0
0 0 0 0 0 0 2 0 4 12 0 0 0 0 0 0 0 0 0 0 0 0 0 0 0 0 0 0 0 0 0 0 0 0 0 0 0 0 0 0 0 0 0 0 0
0 0 0 0 0 0 0 0 0 3 0 3 0 0 0 0 0 0 0 0 0 0 0 0 0 0 0 0 0 0 0 0 0 0 0 0 0 0 0 0 0 0 0 0 0
0 0 0 0 0 3 0 0 0 2 0 0 1 2 0 0 0 0 0 0 0 0 0 0 0 0 0 0 0 0 0 0 0 0 0 0 0 0 0 0 0 0 0 0 0
CIN
-9 -7 -7 -7 -8 -7 -4 -0 -2 -0 -0 -0 -0 -0 -0 -0 -0 -0 -0 -0 -0 -0 -0 -0 -0 -0 -0 -0 -0 -0 -0 -0 -0 -0 -0 -0 -0 -0 -0 -0 -0 -0 -0 -0 -259
-8 -5 -6 -6 -7 -7 -6 -7 -2 -0 -4 -0 -0 -0 -0 -0 -0 -0 -0 -0 -0 -0 -0 -0 -0 -0 -0 -0 -0 -0 -0 -0 -0 -0 -0 -0 -0 -0 -0 -0 -0 -0 -0 -0 -316
-9 -9 -8 -9 -8 -3 -6 -0 -6 -0 -5 -0 -0 -0 -0 -0 -0 -0 -0 -0 -0 -0 -0 -0 -0 -0 -0 -0 -0 -0 -0 -0 -0 -0 -0 -0 -0 -0 -0 -0 -0 -0 -0 -0 -296
-0 -11 -7 -6 -8 -3 -3 -4 -0 -5 -0 -22 -5 -0 -0 -0 -0 -0 -0 -0 -0 -0 -0 -0 -0 -0 -0 -0 -0 -0 -0 -0 -0 -0 -0 -0 -0 -0 -0 -0 -0 -0 -0 -0 -0
-10 -9 -5 -6 -4 -5 -3 -4 -1 -0 -0 -83 -112 -35 -0 -0 -0 -0 -0 -0 -0 -0 -0 -0 -0 -0 -0 -0 -0 -0 -0 -0 -0 -0 -0 -0 -0 -0 -0 -0 -0 -0 -0 -0 -0
-7 -9 -2 -3 -5 -4 -1 -2 -0 -0 -0 -197 -0 -0 -0 -0 -0 -0 -0 -0 -0 -0 -0 -0 -0 -0 -0 -0 -0 -0 -0 -0 -0 -0 -0 -0 -0 -0 -0 -0 -0 -0 -0 -0 -0
-8 -11 -0 -7 -6 -3 -2 -0 -0 -0 -0 -22 -0 -0 -0 -0 -0 -0 -0 -0 -0 -0 -0 -0 -0 -0 -0 -0 -0 -0 -0 -0 -0 -0 -0 -0 -0 -0 -0 -0 -0 -0 -0 -0 -0
-4 -1 -0 -7 -7 -2 -2 -0 -0 -0 -0 -0 -0 -0 -0 -0 -0 -0 -0 -0 -0 -0 -0 -0 -0 -0 -0 -0 -0 -0 -0 -0 -0 -0 -0 -0 -0 -0 -0 -0 -0 -0 -0 -0 -0
-12 -0 -5 -6 -5 -4 -2 -0 -0 -0 -0 -0 -0 -0 -0 -0 -0 -0 -0 -0 -0 -0 -0 -0 -0 -0 -0 -0 -0 -0 -0 -0 -0 -0 -0 -0 -0 -0 -0 -0 -0 -0 -0 -0 -0
-52 -16 -12 -8 -3 -3 -0 -0 -0 -0 -0 -0 -0 -0 -0 -0 -0 -0 -0 -0 -0 -0 -0 -0 -0 -0 -0 -0 -0 -0 -0 -0 -0 -0 -0 -0 -0 -0 -0 -0 -0 -0 -0 -0 -0
-10 -9 -14 -7 -7 -0 -0 -0 -0 -0 -0 -0 -0 -0 -0 -0 -0 -0 -0 -0 -0 -0 -0 -0 -0 -0 -0 -0 -0 -0 -0 -0 -0 -0 -0 -0 -0 -0 -0 -0 -0 -0 -0 -0 -0
-10 -16 -13 -8 -0 -0 -0 -0 -0 -0 -0 -0 -0 -0 -0 -0 -0 -0 -0 -0 -0 -0 -0 -0 -0 -0 -0 -0 -0 -0 -0 -0 -0 -0 -0 -0 -0 -0 -0 -0 -0 -0 -0 -0 -0
-7 -115 -13 -9 -1 -0 -0 -0 -0 -0 -0 -0 -0 -0 -0 -0 -0 -0 -0 -0 -0 -0 -0 -0 -0 -0 -0 -0 -0 -0 -0 -0 -0 -0 -0 -0 -0 -0 -0 -0 -0 -0 -0 -0 -0
-35 -16 -10 -4 -0 -1 -0 -0 -0 -0 -0 -0 -0 -0 -0 -0 -0 -0 -0 -0 -0 -0 -0 -0 -0 -0 -0 -0 -0 -0 -0 -0 -0 -0 -0 -0 -0 -0 -0 -0 -0 -0 -0 -0 -0
-0 -12 -6 -3 -3 -0 -0 -0 -0 -0 -0 -0 -0 -0 -0 -0 -0 -0 -0 -0 -0 -0 -0 -0 -0 -0 -0 -0 -0 -0 -0 -0 -0 -0 -0 -0 -0 -0 -0 -0 -0 -0 -0 -0 -0
-0 -11 -56 -8 -3 -0 -0 -0 -0 -0 -0 -0 -0 -0 -0 -0 -0 -0 -0 -0 -0 -0 -0 -0 -0 -0 -0 -0 -0 -0 -0 -0 -0 -0 -0 -0 -0 -0 -0 -0 -0 -0 -0 -0 -0
-0 -0 -32 -34 -44 -0 -0 -0 -0 -0 -0 -0 -0 -0 -0 -0 -0 -0 -0 -0 -0 -0 -0 -0 -0 -0 -0 -0 -0 -0 -0 -0 -0 -0 -0 -0 -0 -0 -0 -0 -0 -0 -0 -0 -0
-0 -0 -0 -0 -0 -92 -0 -0 -0 -0 -0 -0 -0 -0 -0 -0 -0 -0 -0 -0 -0 -0 -0 -0 -0 -0 -0 -0 -0 -0 -0 -0 -0 -0 -0 -0 -0 -0 -0 -0 -0 -0 -0 -0 -0
-0 -0 -0 -0 -0 -70 -0 -0 -0 -0 -0 -0 -0 -0 -0 -0 -0 -0 -0 -0 -0 -0 -0 -0 -0 -0 -0 -0 -0 -0 -0 -0 -0 -0 -0 -0 -0 -0 -0 -0 -0 -0 -0 -0 -0
-0 -0 -0 -0 -0 -14 -2 -0 -0 -0 -0 -0 -0 -0 -0 -0 -0 -0 -0 -0 -0 -0 -0 -0 -0 -0 -0 -0 -0 -0 -0 -0 -0 -0 -0 -0 -0 -0 -0 -0 -0 -0 -0 -0 -0
-0 -0 -0 -0 -0 -0 -0 -0 -0 -0 -0 -0 -0 -0 -0 -0 -0 -0 -0 -0 -0 -0 -0 -0 -0 -0 -0 -0 -0 -0 -0 -0 -0 -0 -0 -0 -0 -0 -0 -0 -0 -0 -0 -0 -0
-0 -0 -5 -0 -3 -4 -1 -0 -0 -0 -0 -0 -0 -0 -0 -0 -0 -0 -0 -0 -0 -0 -0 -0 -0 -0 -0 -0 -0 -0 -0 -0 -0 -0 -0 -0 -0 -0 -0 -0 -0 -0 -0 -0 -0
-0 -0 -4 -1 -0 -0 -0 -5 -18 -0 -0 -0 -0 -0 -0 -0 -0 -0 -0 -0 -0 -0 -0 -0 -0 -0 -0 -0 -0 -0 -0 -0 -0 -0 -0 -0 -0 -0 -0 -0 -0 -0 -0 -0 -0
-0 -0 -0 -0 -0 -0 -0 -0 -5 -9 -0 -0 -0 -0 -0 -0 -0 -0 -0 -0 -0 -0 -0 -0 -0 -0 -0 -0 -0 -0 -0 -0 -0 -0 -0 -0 -0 -0 -0 -0 -0 -0 -0 -0 -0
-0 -0 -0 -0 -0 -0 -0 -0 -0 -3 -5 -3 -0 -0 -0 -0 -0 -0 -0 -0 -0 -0 -0 -0 -0 -0 -0 -0 -0 -0 -0 -0 -0 -0 -0 -0 -0 -0 -0 -0 -0 -0 -0 -0 -0
-0 -0 -0 -0 -0 -0 -0 -0 -0 -5 -0 -21 -0 -0 -0 -0 -0 -0 -0 -0 -0 -0 -0 -0 -0 -0 -0 -0 -0 -0 -0 -0 -0 -0 -0 -0 -0 -0 -0 -0 -0 -0 -0 -0 -0
-0 -0 -0 -0 -0 -7 -0 -0 -0 -0 -0 -1 -8 -20 -0 -0 -0 -0 -0 -0 -0 -0 -0 -0 -0 -0 -0 -0 -0 -0 -0 -0 -0 -0 -0 -0 -0 -0 -0 -0 -0 -0 -0 -0 -0
Wind_Speed
26 27 28 26 24 24 23 18 18 13 13 22 26 27 32 24 24 23 29 27 27 24 25 22 23 23 22 23 21 20 16 13 10 7 8 26 25 23 19 22 22 23 20 21 24
25 27 26 26 23 23 24 22 19 19 22 23 30 26 22 20 28 34 30 27 27 25 25 27 27 25 24 24 22 22 18 15 17 17 17 27 25 27 24 24 23 23 19 22 23
23 23 25 26 26 25 24 22 21 20 22 25 32 24 17 13 33 35 27 32 28 27 26 25 25 27 26 25 23 22 19 17 18 18 19 21 23 23 24 23 23 23 23 23 23
24 20 25 28 26 25 23 20 19 20 20 26 27 24 19 24 35 26 27 31 28 27 24 25 28 28 27 26 23 20 19 17 16 18 18 19 19 22 24 20 18 22 23 23 24
26 22 26 28 24 24 22 20 18 18 19 24 23 24 21 28 32 21 26 25 26 29 29 28 32 28 28 26 22 22 20 17 15 16 16 18 19 21 23 24 21 18 23 23 24
25 20 26 30 26 23 22 19 18 17 17 21 21 23 21 33 23 23 26 25 27 29 30 29 32 28 25 26 26 22 19 18 18 17 18 21 20 20 18 20 25 24 24 23 24
26 21 28 34 26 24 22 20 19 16 16 23 21 23 24 29 24 24 26 28 26 28 29 30 27 29 23 24 22 19 20 21 21 21 19 20 25 26 20 20 18 23 23 25 22
21 21 28 33 27 24 21 20 21 18 20 24 28 25 25 26 23 23 25 26 25 24 26 24 23 24 25 20 21 23 23 25 24 23 21 21 25 20 20 24 21 18 19 17 2
19 20 34 33 26 23 21 20 22 20 20 24 26 26 26 23 29 24 25 28 25 22 21 21 24 26 25 25 25 26 26 27 25 24 23 22 23 21 19 18 17 16 16 20 18
22 20 31 30 25 23 21 19 20 18 18 23 24 26 25 28 27 24 23 23 26 24 24 27 26 29 29 30 33 28 27 26 26 23 25 25 30 21 21 23 19 19 18 17 20
22 22 32 29 27 23 20 21 23 25 26 27 30 26 24 24 22 25 25 24 25 29 34 30 34 39 33 32 27 26 25 25 24 22 24 27 32 30 27 26 26 25 25 20 22
22 21 32 28 29 26 25 31 29 24 29 24 24 26 23 24 28 26 25 28 32 36 30 33 40 31 27 26 24 24 24 26 21 21 23 25 31 32 28 25 26 27 26 24 21
23 23 28 29 29 29 31 28 23 21 25 26 25 28 25 25 28 30 28 26 33 36 35 36 31 27 29 27 25 25 24 25 24 21 21 25 29 27 23 22 23 22 22 19 19
25 24 30 28 30 31 34 26 22 21 29 32 30 29 22 24 28 25 26 26 29 36 31 30 27 30 29 31 28 29 24 21 19 20 27 23 27 24 21 20 18 18 17 16 17
22 23 29 31 28 36 29 23 20 23 40 27 32 24 24 27 25 32 25 26 32 31 31 33 32 30 33 32 26 28 21 21 21 23 24 26 28 25 21 20 16 16 15 15 15
18 22 27 30 26 28 24 20 19 32 41 30 30 32 29 27 27 28 29 22 23 27 28 27 23 27 29 24 25 19 19 20 22 25 33 27 27 27 21 19 16 15 14 14 13
17 22 27 28 31 26 24 23 34 46 29 34 35 34 33 31 30 34 37 35 34 34 37 30 29 27 23 24 23 26 24 28 31 31 34 25 27 30 20 15 15 16 13 11 10
15 23 25 26 23 25 27 32 44 43 38 26 33 32 36 31 33 32 36 40 34 30 33 36 36 30 28 29 30 29 28 30 34 34 32 25 30 26 20 19 15 12 9 8 7
18 19 25 27 24 28 34 44 46 40 35 31 26 37 37 35 31 34 38 41 38 33 34 36 34 27 26 24 25 31 34 24 26 26 29 29 29 29 21 17 14 10 7 5 5
20 23 25 27 25 31 40 49 38 32 32 30 35 35 42 41 36 38 37 38 39 36 29 29 35 27 26 23 24 28 21 30 28 34 38 33 34 30 22 17 13 10 8 6 5
16 23 26 25 26 36 48 46 36 30 30 36 35 33 37 41 42 39 38 31 37 35 30 27 28 30 27 34 34 28 31 29 27 31 34 35 33 25 21 15 12 9 7 5 5
21 28 21 25 36 40 50 39 30 30 29 30 33 32 36 36 41 43 43 41 32 32 34 29 27 30 34 28 28 30 32 31 32 34 33 32 33 22 17 11 10 9 8 7 7
23 26 17 23 42 43 42 42 36 32 32 31 33 33 32 38 39 42 40 33 30 33 34 31 31 34 33 32 30 36 33 33 31 29 35 36 36 23 17 14 13 12 12 10 9
23 28 27 20 27 40 36 50 43 33 33 31 31 29 30 34 33 38 39 32 31 34 31 30 34 40 43 40 32 37 36 35 34 37 35 38 33 25 21 18 17 15 14 13 12
22 26 26 32 33 30 38 36 47 42 35 33 33 34 34 36 37 35 33 31 31 32 33 33 44 41 40 38 34 37 37 36 38 40 40 42 37 29 24 21 19 17 16 16 16
25 26 25 27 28 32 30 39 40 44 38 42 41 34 32 38 38 41 34 33 33 30 33 32 39 39 44 37 38 41 38 37 40 40 43 42 40 30 25 21 22 20 19 18 17
22 20 24 27 31 34 34 30 32 31 43 40 36 34 35 31 29 30 30 30 30 33 34 34 36 36 46 37 37 47 45 39 40 40 39 43 39 27 23 26 25 23 21 20 18
Wind_Direction
238 237 236 236 234 235 237 234 239 242 242 240 233 233 230 241 245 242 231 236 234 233 227 225 225 221 221 220 222 226 240 243 242 246 238 189 182 189 207 150 170 158 167 163 119
237 237 236 236 236 235 237 239 240 241 245 241 229 234 236 241 237 241 238 239 233 226 221 218 216 214 216 216 221 225 235 238 232 228 222 192 193 169 176 169 163 162 197 137 123
236 236 236 235 234 235 236 238 238 241 244 233 225 234 233 235 234 237 237 230 229 224 220 220 213 213 215 216 220 226 233 231 228 229 221 212 203 200 185 182 177 163 147 134 133
234 232 233 232 232 233 233 233 235 237 239 227 225 227 229 233 227 238 241 227 224 220 217 214 211 211 213 213 221 225 230 230 232 230 225 219 217 206 193 203 213 198 155 142 147
232 229 229 229 230 231 231 230 230 233 233 225 224 223 227 230 229 235 227 222 218 216 215 213 210 211 214 216 220 226 226 231 233 231 231 228 226 222 209 207 217 229 165 155 158
229 223 228 225 227 227 228 226 225 229 228 223 222 222 231 226 235 228 222 218 218 215 214 213 213 216 217 219 224 227 228 231 234 235 236 232 237 236 239 239 218 213 186 167 165
229 221 225 221 224 223 224 222 223 226 225 220 219 223 230 230 228 226 219 219 220 218 213 216 218 217 218 220 226 225 230 233 236 238 243 244 238 232 251 250 258 239 237 203 168
219 214 221 219 220 220 220 219 222 223 223 218 214 225 231 228 226 223 219 217 219 221 219 219 219 220 223 220 228 229 234 235 238 240 246 246 243 254 260 249 255 265 266 275 353
202 205 213 214 216 216 215 216 217 221 220 215 215 223 230 224 218 222 218 213 213 218 219 217 220 221 221 219 226 231 235 235 240 243 247 248 251 258 263 269 271 277 279 271 283
204 193 210 211 211 211 210 210 214 216 217 215 224 224 229 223 217 218 218 212 213 210 212 218 222 222 222 222 226 228 234 239 242 246 247 251 244 259 260 259 271 273 280 287 282
194 197 207 208 208 206 196 202 208 218 219 221 219 224 221 218 218 218 213 211 212 213 215 219 219 220 222 227 235 235 237 242 247 252 251 252 249 251 256 259 261 268 271 288 287
193 189 205 205 207 206 208 214 215 224 212 226 225 223 223 218 213 214 213 213 211 211 217 218 222 225 226 230 235 235 237 242 250 254 256 259 256 252 261 271 271 274 279 284 293
192 192 202 203 206 211 214 219 222 218 221 226 225 221 220 220 217 212 214 217 214 215 218 220 228 225 225 228 230 238 239 242 249 253 262 266 265 266 272 278 281 286 288 295 298
197 195 199 198 208 211 216 222 223 228 221 223 221 222 224 220 220 222 222 222 221 218 220 229 233 225 226 230 233 238 246 246 249 253 257 267 266 272 275 279 287 292 296 301 303
200 190 196 201 211 210 215 219 223 229 219 222 219 226 220 219 218 218 226 227 218 220 224 226 225 226 229 233 237 244 245 248 254 258 263 264 268 273 277 278 286 295 301 305 306
206 202 196 213 215 214 212 212 222 222 223 222 218 218 215 222 223 217 221 233 227 224 229 233 238 235 235 237 240 234 240 254 260 261 259 263 266 272 275 280 286 297 304 308 310
215 209 206 215 214 211 205 208 216 220 226 223 217 215 215 220 221 218 216 218 220 217 221 229 231 237 235 231 235 240 233 249 253 254 259 268 266 268 281 286 291 296 304 314 318
230 217 214 217 217 206 206 211 221 221 220 229 219 212 219 218 225 221 219 221 227 228 222 225 231 230 235 237 237 233 240 248 253 256 261 267 266 273 276 283 291 300 310 324 335
235 220 215 218 219 209 207 216 223 223 223 221 215 215 223 223 227 223 224 224 225 226 228 228 235 238 241 244 238 239 241 255 258 265 264 265 271 276 280 279 280 282 295 312 336
228 220 218 225 220 211 214 222 228 231 221 218 224 226 222 220 224 225 223 230 228 229 238 238 235 242 243 246 249 247 240 248 256 257 261 267 269 270 271 268 268 262 268 282 304
226 220 231 236 215 213 219 222 230 234 228 224 228 229 229 225 227 228 230 239 229 228 237 237 243 241 241 241 239 243 244 251 258 261 263 267 273 279 270 260 252 251 257 265 282
230 217 240 227 214 221 222 225 236 231 235 235 234 236 231 228 229 232 233 236 232 227 231 240 245 244 241 254 252 249 250 246 253 258 263 271 273 284 272 258 247 250 258 268 282
228 228 238 223 217 220 227 228 234 233 235 237 235 239 238 232 235 236 237 241 236 231 231 235 245 244 248 253 253 248 250 250 257 266 262 265 273 282 273 258 255 253 259 265 275
232 229 230 235 233 225 229 227 231 238 235 239 240 242 238 237 240 239 237 243 240 238 240 238 248 245 245 250 250 249 249 251 252 259 265 265 274 271 264 253 251 253 257 264 273
239 234 234 229 231 231 233 235 228 232 238 239 241 241 236 239 238 242 237 242 244 244 240 243 246 249 254 258 254 255 251 249 251 257 262 269 268 263 256 250 248 251 255 261 268
237 237 237 237 234 232 236 232 232 230 234 236 239 240 241 241 241 241 240 242 242 243 238 245 249 249 250 256 257 258 257 254 253 257 264 269 269 273 255 257 258 256 253 258 264
248 251 241 239 235 232 235 238 235 232 238 240 237 237 239 245 250 253 249 250 250 243 240 242 246 249 251 256 258 258 252 254 258 257 259 262 266 271 259 255 252 254 253 256 262